Tracking 23764 objects as of 18-Oct-2021
HD Live streaming from Space Station
objects crossing your sky now

USA 294

Track USA 294 now!
10-day predictions
USA 294 is classified as:


NORAD ID: 45110
Int'l Code: 2020-007A
Perigee: 584.9 km
Apogee: 590.5 km
Inclination: 70.0 °
Period: 96.3 minutes
Semi major axis: 6958 km
RCS: Unknown
Launch date: January 31, 2020
Source: United States (US)
Launch site: Rocket Lab Launch Complex (RLLC)

USA 294 (NROL-151) is a classified satellite launched by Rocket Lab for the U.S. National Reconnaissance Office.
aabbcc
Your satellite tracking list
Your tracking list is empty




NASA's NSSDC Master Catalog

Two Line Element Set (TLE):
1 45110U 20007A   21284.17821385 0.00003000  00000-0  26967-3 0    01
2 45110  70.0132  44.0381 0003991   5.4821 354.4046 14.95576728    08
Source of the keplerian elements: McCants